{"data":{"norad_id":58448,"intl_designator":"2023-183M","name":"STARLINK-30926","alt_names":[],"object_type":"PAYLOAD","status":"ACTIVE","operator":null,"country":"US","launch_date":"2023-11-28","launch_site_code":"AFETR","launch_vehicle":null,"mission":null,"orbit_class":"UNKNOWN","rcs_meters":null,"size_class":null,"mass_kg":null,"dimensions":null,"purposes":["comms"],"wikipedia_slug":null,"has_3d_model":false,"image_url":null,"decayed_at":null,"tle_current":{"epoch":"2026-09-20T15:18:41.372640Z","epoch_age_seconds":134862,"freshness":"FRESH","line1":"1 58448U 23183M   26263.63797885 -.00002937  00000+0 -97287-4 0  9997","line2":"2 58448  43.0025  20.2286 0000349 286.3976  73.6838 15.27572884156558","mean_motion":15.27572884,"eccentricity":3.49e-5,"inclination_deg":43.0025,"raan_deg":20.2286,"arg_perigee_deg":286.3976,"mean_anomaly_deg":73.6838,"bstar":-9.7287e-5,"rev_number":15655,"period_min":94.267187843065,"perigee_km":482.83094784794,"apogee_km":483.30986012474,"semimajor_km":6861.2074039863,"source":"CELESTRAK","updated_at":"2026-09-21T09:00:33.877499Z"}}}